Flag for Azerbaijan Weather past 2 weeks in Ganja, Azerbaijan

52 °F

Mostly cloudy.

Feels Like: 50 °F
Forecast: 52 / 65 °F
Wind: 6 mph from West

Location: Gyanca Airport

Current Time: Oct 9, 2015 at 11:47:59 PM

Latest Report: Oct 9, 2015 at 11:30 PM

Visibility: N/A

Pressure: 30.07 "Hg

Humidity: 94%

Dew point: 50 °F

Location of GanjaLocation

Historic Weather in Ganja — Graph


Ganja temperature yesterday

Maximum temperature yesterday: 70 °F (at 11:00 AM)
Minimum temperature yesterday: 61 °F (at 4:00 AM)
Average temperature yesterday: 65 °F

Past Weeks' High & Low Weather Summary

High82 °F (Sep 25, 4:30 PM)100% (Oct 5, 9:00 AM)30.24 "Hg (Oct 5, 9:00 AM)
Low52 °F (Oct 9, 6:30 AM)17% (Sep 27, 5:00 PM)29.59 "Hg (Oct 7, 6:30 PM)
Average68 °F63%30.04 "Hg
* Reported Sep 24 11:00 PM — Oct 9 11:00 PM, Ganja, Weather by CustomWeather, © 2015

Note: Actual official high and low records may vary slightly from our data, if they occured in-between our weather recording intervals... More about our weather records


Ganja weather history for previous 24 hours

Time TempWeatherWind HumidityBarometerVisibility
11:00 PM
Fri, Oct 9
52 °FMostly cloudy.No wind88%30.07 "HgN/A
10:30 PM52 °FMostly cloudy.1 mph94%30.07 "HgN/A
10:00 PM52 °FMostly cloudy.5 mph88%30.07 "HgN/A
9:30 PM52 °FMostly cloudy.5 mph88%30.09 "HgN/A
9:00 PM52 °FBroken clouds.6 mph88%30.07 "HgN/A
8:30 PM52 °FBroken clouds.3 mph88%30.07 "HgN/A
7:30 PM52 °FBroken clouds.No wind88%30.07 "HgN/A
7:00 PM52 °FBroken clouds.3 mph88%30.07 "HgN/A
6:30 PM52 °FBroken clouds.6 mph88%30.04 "HgN/A
6:00 PM52 °FBroken clouds.6 mph88%30.04 "HgN/A
5:30 PM52 °FBroken clouds.2 mph88%30.04 "HgN/A
5:00 PM52 °FBroken clouds.6 mph88%30.04 "HgN/A
4:30 PM52 °FBroken clouds.7 mph88%30.04 "HgN/A
4:00 PM54 °FBroken clouds.8 mph82%30.04 "HgN/A
3:30 PM54 °FBroken clouds.9 mph82%30.04 "HgN/A
3:00 PM54 °FBroken clouds.10 mph82%30.04 "HgN/A
2:30 PM54 °FBroken clouds.7 mph82%30.07 "HgN/A
2:00 PM54 °FBroken clouds.5 mph82%30.07 "HgN/A
1:30 PM54 °FBroken clouds.5 mph82%30.07 "HgN/A
1:00 PM55 °FBroken clouds.2 mph77%30.07 "HgN/A
12:30 PM54 °FBroken clouds.8 mph82%30.07 "HgN/A
12:00 PM54 °FBroken clouds.9 mph82%30.07 "HgN/A
11:30 AM54 °FBroken clouds.8 mph82%30.09 "HgN/A
11:00 AM54 °FBroken clouds.7 mph82%30.09 "HgN/A
10:30 AM52 °FBroken clouds.8 mph82%30.09 "HgN/A
10:00 AM52 °FBroken clouds.2 mph88%30.07 "HgN/A
9:30 AM52 °FPartly cloudy.2 mph94%30.07 "HgN/A
9:00 AM52 °FPartly cloudy.5 mph94%30.07 "Hg4 mi
8:30 AM52 °FPartly cloudy.5 mph94%30.07 "Hg4 mi
8:00 AM52 °FPartly cloudy.No wind94%30.07 "Hg4 mi
7:30 AM52 °FPartly cloudy.3 mph94%30.07 "Hg4 mi
7:00 AM52 °FPartly cloudy.2 mph94%30.07 "Hg4 mi
6:30 AM52 °FPartly cloudy.3 mph94%30.07 "Hg4 mi
6:00 AM54 °FPartly cloudy.5 mph88%30.07 "Hg4 mi
5:30 AM54 °FPartly cloudy.5 mph94%30.07 "Hg4 mi
5:00 AM54 °FPartly cloudy.7 mph94%30.07 "Hg4 mi
4:30 AM54 °FPartly cloudy.8 mph94%30.07 "Hg4 mi
4:00 AM54 °FPartly cloudy.10 mph94%30.07 "Hg4 mi
3:30 AM55 °FPartly cloudy.8 mph94%30.07 "Hg4 mi
3:00 AM55 °FPartly cloudy.9 mph94%30.07 "Hg4 mi
2:30 AM57 °FPartly cloudy.10 mph94%30.04 "HgN/A
2:00 AM61 °FPartly cloudy.5 mph88%30.04 "HgN/A
1:30 AM63 °FPartly cloudy.5 mph59%30.04 "HgN/A
1:00 AM63 °FPartly cloudy.6 mph77%30.04 "HgN/A
12:30 AM63 °FPartly cloudy.5 mph83%30.04 "HgN/A
12:00 AM63 °FPartly cloudy.3 mph77%30.04 "HgN/A
11:30 PM
Thu, Oct 8
63 °FPartly cloudy.5 mph77%30.04 "HgN/A
11:00 PM63 °FPartly cloudy.No wind77%30.04 "HgN/A
Weather by CustomWeather, © 2015

See weather overviewHow to use our weather pages